#timestamp,LO_Frequency,Hit,StdDev 
1638259215.7,286046997.1,N
1638259235.5,286046997.5,N
1638259255.4,286046994.9,Y
1638259275.2,286046996.7,P
1638259295.1,286046997.7,N
1638259296.0,286046997.7,P
1638259315.8,286046996.9,Y
1638259335.7,286046999.8,P
1638259355.5,286047000.3,N
1638259375.3,286047001.9,N
1638259395.2,286047002.3,N
1638259445.0,286047002.5,E
1638259455.9,286047000.3,N
1638259475.7,286046999.2,P
1638259495.5,286046998.3,P
1638259515.4,286046998.2,N
1638259535.2,286047000.0,N
1638259555.1,286046998.4,N
1638259556.0,286046998.4,N
1638259575.8,286046998.8,N
1638259595.6,286046999.2,N
1638259615.5,286046996.6,Y
1638259635.3,286046998.5,P
1638259655.2,286047000.0,N
1638259675.9,286046999.8,N
1638259695.7,286047000.4,N
1638259715.6,286047000.0,N
1638259735.4,286047000.6,N
1638259755.2,286047000.4,N
1638259775.1,286047002.1,Y
1638259776.0,286047002.1,P
1638259795.8,286046999.8,N
1638259815.7,286047000.9,N
1638259835.5,286046999.7,N
1638259855.3,286046999.7,N
1638259875.2,286047000.0,N
1638259895.0,286047000.6,N
1638259895.9,286047000.6,N
1638259915.8,286047001.2,N
1638259935.6,286047002.8,Y
1638259955.4,286047004.3,P
1638259975.3,286046999.9,N
1638259995.1,286047002.8,N
1638260015.9,286047000.9,N
1638260035.7,286046998.2,N
1638260055.5,286047000.6,N
1638260075.4,286047000.0,N
1638260095.2,286046999.7,N
1638260115.0,286047002.0,N
1638260115.9,286047002.0,N
1638260135.8,286047001.8,N
1638260155.6,286047001.6,N
1638260175.5,286047000.1,N
1638260195.3,286046999.8,N
1638260215.1,286047002.7,N
1638260235.9,286047002.0,N
1638260255.7,286047002.2,N
1638260275.6,286047000.1,N
1638260295.4,286047002.8,N
1638260315.2,286047000.1,N
1638260335.1,286046999.8,N
1638260336.0,286046999.8,N
1638260355.8,286047000.5,N
1638260375.7,286046999.7,N
1638260395.5,286047002.8,N
1638260415.3,286047000.4,N
1638260435.2,286047000.1,N
1638260455.1,286047002.8,N
1638260456.0,286047002.8,N
1638260475.8,286047002.6,N
1638260495.7,286047000.1,N
1638260515.5,286047002.0,N
1638260535.4,286047001.9,N
1638260555.2,286047004.2,Y
1638260575.0,286047002.0,P
1638260575.9,286047002.0,P
1638260595.8,286047002.8,P
1638260615.6,286047002.0,Y
1638260635.4,286047000.8,P
1638260655.3,286047000.9,N
1638260675.1,286047000.5,N
1638260695.9,286046999.9,N
1638260715.7,286047000.3,N
1638260735.5,286046998.7,N
1638260755.4,286046998.1,N
1638260775.2,286046998.8,N
1638260795.1,286046998.4,N
1638260796.0,286046998.4,N
1638260815.8,286047000.8,N
1638260835.6,286046998.4,N
1638260855.5,286046998.4,N
1638260875.3,286047000.8,N
1638260895.2,286046998.4,N
1638260915.9,286046998.6,N
1638260935.7,286047000.5,N
1638260955.6,286047001.1,N
1638260975.4,286047000.4,N
1638260995.2,286047000.2,N
1638261015.1,286047001.0,N
1638261016.0,286047001.0,N
1638261035.8,286047000.0,N
1638261055.7,286047001.0,N
1638261075.5,286047002.8,N
1638261095.3,286047000.6,N
1638261115.2,286047002.7,N
1638261135.0,286047004.3,Y
1638261135.9,286047004.3,P
1638261155.8,286047001.6,N
1638261175.6,286047001.9,N
1638261195.4,286047001.8,N
1638261215.3,286047003.9,N
1638261235.1,286047003.9,N
1638261255.8,286047004.3,N
1638261275.7,286047004.2,N
1638261295.5,286047004.4,N
1638261315.3,286047001.6,N
1638261335.2,286047001.3,N
1638261355.0,286047001.5,N
1638261355.9,286047001.5,N
1638261375.8,286047002.1,N
1638261395.6,286047002.8,N
1638261415.4,286046999.8,N
1638261435.3,286047000.4,N
1638261455.1,286047002.1,N
1638261475.8,286047002.2,N
1638261495.7,286047002.0,N
1638261515.5,286047002.0,N
1638261535.4,286046999.9,N
1638261555.2,286047000.0,N
1638261575.0,286047000.6,N
1638261575.9,286047000.6,N
1638261595.8,286046999.8,N
1638261615.6,286047000.3,N
1638261635.4,286047000.1,N
1638261655.3,286047002.2,N
1638261675.1,286047002.0,N
1638261695.9,286047003.9,N
1638261715.7,286047004.2,N
1638261735.5,286047001.7,N
1638261755.4,286047001.8,N
1638261775.2,286047001.5,N
1638261795.1,286047004.3,Y
1638261796.0,286047004.3,P
1638261815.8,286047001.2,N
1638261835.6,286047000.1,N
1638261855.5,286047000.9,N
1638261875.3,286047001.1,N
1638261895.1,286047000.8,N
1638261915.9,286047000.8,N
1638261935.7,286046998.1,N
1638261955.6,286047000.9,N
1638261975.4,286047000.4,N
1638261995.2,286047000.3,N
1638262015.1,286046998.5,N
1638262016.0,286046998.5,N
1638262035.8,286047001.0,N
1638262055.7,286047000.2,N
1638262075.5,286047000.6,N
1638262095.3,286047000.9,N
1638262115.2,286046998.9,N
1638262135.9,286046998.4,N
1638262155.7,286047000.7,N
1638262175.6,286047000.0,N
1638262195.4,286047000.2,N
1638262215.3,286047002.5,N
1638262235.1,286047002.0,N
1638262236.0,286047002.0,N
1638262255.8,286046999.9,N
1638262275.7,286046999.7,N
1638262295.5,286047002.2,N
1638262315.3,286047002.0,N
1638262335.2,286047001.8,N
1638262355.0,286047002.2,N
1638262355.9,286047002.2,N
1638262375.8,286047002.2,N
1638262395.6,286046999.8,N
1638262415.4,286047001.9,N
1638262435.3,286047002.8,N
1638262455.1,286047002.5,N
1638262475.8,286047002.5,N
1638262495.7,286047004.0,Y
1638262515.5,286046999.7,P
1638262535.4,286047000.2,N
1638262555.2,286047000.1,N
1638262575.0,286047002.6,Y
1638262575.9,286047002.6,P
1638262595.8,286047001.7,N
1638262615.6,286047002.4,N
1638262635.5,286047000.0,N
1638262655.3,286046999.9,N
1638262675.1,286047000.3,N
1638262695.9,286047000.1,N
1638262715.7,286047000.5,N
1638262735.5,286047000.4,N
1638262755.4,286047000.3,N
1638262775.2,286047000.8,N
1638262795.1,286047000.7,N
1638262796.0,286047000.7,N
